| time (UTC) | temp F | wind direction | speed MPH | gust MPH | rain 1hr in | rain 24hr in | rain mn in | humidity % | barometer mb |
| 20260505083018 | 54 | 20 | 2.0 | 10.0 | 0.00 | 0.00 | 0.00 | 80 | 1015.2 |
| 20260505082038 | 54 | 28 | 1.0 | 7.0 | 0.00 | 0.00 | 0.00 | 82 | 1015.1 |
| 20260505081020 | 54 | 353 | 0.0 | 5.0 | 0.00 | 0.00 | 0.00 | 84 | 1015.0 |
| 20260505080019 | 53 | 3 | 1.0 | 7.0 | 0.00 | 0.00 | 0.00 | 84 | 1015.1 |
| 20260505075021 | 53 | 356 | 0.0 | 2.0 | 0.00 | 0.00 | 0.00 | 84 | 1015.0 |
| 20260505074023 | 53 | 8 | 2.0 | 7.0 | 0.00 | 0.00 | 0.00 | 84 | 1015.1 |
| 20260505073027 | 53 | 30 | 1.0 | 5.0 | 0.00 | 0.00 | 0.00 | 84 | 1015.0 |
| 20260505072027 | 53 | 15 | 1.0 | 7.0 | 0.00 | 0.00 | 0.00 | 85 | 1015.1 |
| 20260505071031 | 53 | 20 | 0.0 | 5.0 | 0.00 | 0.00 | 0.00 | 85 | 1015.0 |
| 20260505070052 | 53 | 23 | 0.0 | 5.0 | 0.00 | 0.00 | 0.00 | 85 | 1015.1 |
| 20260505065048 | 53 | 32 | 1.0 | 5.0 | 0.00 | 0.00 | 0.00 | 85 | 1015.2 |
| 20260505064032 | 53 | 30 | 2.0 | 7.0 | 0.00 | 0.00 | 0.00 | 85 | 1015.3 |
| 20260505063032 | 53 | 25 | 1.0 | 5.0 | 0.00 | 0.00 | 0.00 | 85 | 1015.2 |
| 20260505062018 | 53 | 25 | 1.0 | 5.0 | 0.00 | 0.00 | 0.00 | 86 | 1015.2 |
| 20260505061018 | 53 | 25 | 1.0 | 5.0 | 0.00 | 0.00 | 0.00 | 86 | 1015.1 |
| 20260505060020 | 53 | 43 | 0.0 | 0.0 | 0.00 | 0.00 | 0.00 | 88 | 1014.9 |
| 20260505055024 | 52 | 34 | 1.0 | 5.0 | 0.00 | 0.00 | 0.00 | 88 | 1015.1 |
| 20260505054024 | 52 | 26 | 1.0 | 5.0 | 0.00 | 0.00 | 0.00 | 89 | 1015.0 |
| 20260505053024 | 52 | 20 | 1.0 | 7.0 | 0.00 | 0.00 | 0.00 | 89 | 1015.2 |
| 20260505052023 | 52 | 20 | 0.0 | 2.0 | 0.00 | 0.00 | 0.00 | 89 | 1015.1 |
| 20260505051023 | 52 | 20 | 0.0 | 5.0 | 0.00 | 0.00 | 0.00 | 89 | 1015.2 |
| 20260505041019 | 53 | 29 | 0.0 | 2.0 | 0.00 | 0.00 | 0.00 | 90 | 1015.2 |
| 20260505040022 | 53 | 15 | 0.0 | 0.0 | 0.00 | 0.00 | 0.00 | 89 | 1015.2 |
| 20260505035026 | 53 | 17 | 0.0 | 0.0 | 0.00 | 0.00 | 0.00 | 89 | 1015.3 |
| 20260505034027 | 53 | 57 | 0.0 | 0.0 | 0.00 | 0.00 | 0.00 | 89 | 1015.3 |
| 20260505033033 | 53 | 19 | 0.0 | 2.0 | 0.00 | 0.00 | 0.00 | 89 | 1015.4 |
| 20260505032032 | 53 | 74 | 0.0 | 2.0 | 0.00 | 0.00 | 0.00 | 88 | 1015.3 |
| 20260505031018 | 53 | 41 | 0.0 | 2.0 | 0.00 | 0.00 | 0.00 | 88 | 1015.4 |
| 20260505030022 | 54 | 20 | 1.0 | 5.0 | 0.00 | 0.00 | 0.00 | 88 | 1015.4 |
| 20260505025046 | 54 | 32 | 0.0 | 2.0 | 0.00 | 0.00 | 0.00 | 88 | 1015.4 |
| 20260505024027 | 54 | 35 | 0.0 | 5.0 | 0.00 | 0.00 | 0.00 | 88 | 1015.2 |
| 20260505023026 | 54 | 9 | 0.0 | 2.0 | 0.00 | 0.00 | 0.00 | 88 | 1015.3 |
| 20260505022026 | 54 | 34 | 1.0 | 7.0 | 0.00 | 0.00 | 0.00 | 88 | 1015.4 |
| 20260505021050 | 54 | 63 | 0.0 | 2.0 | 0.00 | 0.00 | 0.00 | 87 | 1015.4 |
| 20260505020019 | 54 | 76 | 0.0 | 2.0 | 0.00 | 0.00 | 0.00 | 86 | 1015.4 |
| 20260505015020 | 54 | 26 | 0.0 | 2.0 | 0.00 | 0.00 | 0.00 | 85 | 1015.4 |
| 20260505014023 | 54 | 23 | 0.0 | 5.0 | 0.00 | 0.00 | 0.00 | 85 | 1015.7 |
| 20260505013025 | 54 | 26 | 1.0 | 5.0 | 0.00 | 0.00 | 0.00 | 85 | 1015.7 |
| 20260505012049 | 54 | 28 | 1.0 | 5.0 | 0.00 | 0.00 | 0.00 | 85 | 1015.7 |
| 20260505011053 | 54 | 23 | 0.0 | 2.0 | 0.00 | 0.00 | 0.00 | 85 | 1015.9 |
| 20260505010020 | 54 | 33 | 0.0 | 2.0 | 0.00 | 0.00 | 0.00 | 85 | 1015.9 |
| 20260505005023 | 54 | 17 | 1.0 | 5.0 | 0.00 | 0.00 | 0.00 | 84 | 1016.0 |
| 20260505004023 | 54 | 26 | 0.0 | 2.0 | 0.00 | 0.00 | 0.00 | 84 | 1016.0 |
| 20260505003024 | 54 | 30 | 1.0 | 5.0 | 0.00 | 0.00 | 0.00 | 84 | 1016.0 |
| 20260505002022 | 55 | 26 | 1.0 | 5.0 | 0.00 | 0.00 | 0.00 | 83 | 1016.1 |
| 20260505001023 | 55 | 23 | 0.0 | 5.0 | 0.00 | 0.00 | 0.00 | 83 | 1016.2 |
| 20260505000027 | 55 | 20 | 1.0 | 7.0 | 0.00 | 0.00 | 0.00 | 83 | 1016.2 |
| 20260504235028 | 55 | 20 | 2.0 | 7.0 | 0.00 | 0.00 | 0.00 | 83 | 1016.2 |
| 20260504234031 | 55 | 34 | 2.0 | 10.0 | 0.00 | 0.00 | 0.00 | 82 | 1016.3 |
| 20260504233017 | 55 | 30 | 2.0 | 7.0 | 0.00 | 0.00 | 0.00 | 82 | 1016.3 |
| 20260504232020 | 55 | 20 | 1.0 | 5.0 | 0.00 | 0.00 | 0.00 | 82 | 1016.3 |
| 20260504231023 | 56 | 7 | 0.0 | 5.0 | 0.00 | 0.00 | 0.00 | 82 | 1016.4 |
| 20260504230023 | 56 | 27 | 1.0 | 5.0 | 0.00 | 0.00 | 0.00 | 82 | 1016.4 |
| 20260504225028 | 56 | 21 | 1.0 | 7.0 | 0.00 | 0.00 | 0.00 | 81 | 1016.4 |
| 20260504224031 | 56 | 27 | 2.0 | 7.0 | 0.00 | 0.00 | 0.00 | 81 | 1016.3 |
| 20260504223017 | 56 | 32 | 1.0 | 7.0 | 0.00 | 0.00 | 0.00 | 82 | 1016.4 |
| 20260504222018 | 56 | 21 | 2.0 | 12.0 | 0.00 | 0.00 | 0.00 | 82 | 1016.5 |
| 20260504221019 | 57 | 20 | 2.0 | 7.0 | 0.00 | 0.00 | 0.00 | 81 | 1016.5 |
| 20260504220022 | 57 | 31 | 2.0 | 7.0 | 0.00 | 0.00 | 0.00 | 81 | 1016.6 |
| 20260504215024 | 57 | 26 | 1.0 | 5.0 | 0.00 | 0.00 | 0.00 | 81 | 1016.5 |
| 20260504214026 | 57 | 29 | 0.0 | 5.0 | 0.00 | 0.00 | 0.00 | 81 | 1016.6 |
| 20260504213027 | 57 | 26 | 1.0 | 7.0 | 0.00 | 0.00 | 0.00 | 81 | 1016.5 |
| 20260504212026 | 58 | 22 | 1.0 | 5.0 | 0.00 | 0.00 | 0.00 | 81 | 1016.5 |
| 20260504211030 | 58 | 22 | 1.0 | 5.0 | 0.00 | 0.00 | 0.00 | 81 | 1016.4 |
| 20260504210031 | 58 | 26 | 1.0 | 5.0 | 0.00 | 0.00 | 0.00 | 80 | 1016.5 |
| 20260504205018 | 58 | 24 | 1.0 | 5.0 | 0.00 | 0.00 | 0.00 | 80 | 1016.4 |
| 20260504204022 | 58 | 22 | 0.0 | 5.0 | 0.00 | 0.00 | 0.00 | 80 | 1016.4 |
| 20260504203026 | 58 | 23 | 0.0 | 2.0 | 0.00 | 0.00 | 0.00 | 80 | 1016.4 |
| 20260504202029 | 57 | 25 | 1.0 | 5.0 | 0.00 | 0.00 | 0.00 | 81 | 1016.4 |
| 20260504201030 | 57 | 17 | 0.0 | 0.0 | 0.00 | 0.00 | 0.00 | 81 | 1016.4 |
| 20260504200038 | 58 | 31 | 0.0 | 2.0 | 0.00 | 0.00 | 0.00 | 81 | 1016.3 |
| 20260504195019 | 58 | 13 | 0.0 | 0.0 | 0.00 | 0.00 | 0.00 | 81 | 1016.2 |
| 20260504194023 | 58 | 25 | 0.0 | 2.0 | 0.00 | 0.00 | 0.00 | 80 | 1016.0 |
| 20260504193043 | 58 | 13 | 0.0 | 2.0 | 0.00 | 0.00 | 0.00 | 79 | 1016.1 |
| 20260504192023 | 58 | 24 | 1.0 | 5.0 | 0.00 | 0.00 | 0.00 | 79 | 1016.0 |
| 20260504191047 | 58 | 21 | 1.0 | 5.0 | 0.00 | 0.00 | 0.00 | 80 | 1016.0 |
| 20260504190028 | 58 | 53 | 0.0 | 2.0 | 0.00 | 0.00 | 0.00 | 80 | 1015.9 |
| 20260504185027 | 58 | 34 | 0.0 | 5.0 | 0.00 | 0.00 | 0.00 | 79 | 1015.9 |
| 20260504184026 | 59 | 29 | 1.0 | 10.0 | 0.00 | 0.00 | 0.00 | 79 | 1015.9 |
| 20260504183030 | 60 | 36 | 0.0 | 5.0 | 0.00 | 0.00 | 0.00 | 78 | 1015.9 |
| 20260504182031 | 61 | 49 | 0.0 | 5.0 | 0.00 | 0.00 | 0.00 | 77 | 1015.7 |
| 20260504181033 | 62 | 26 | 0.0 | 5.0 | 0.00 | 0.00 | 0.00 | 75 | 1015.7 |
| 20260504180018 | 61 | 42 | 1.0 | 7.0 | 0.00 | 0.00 | 0.00 | 73 | 1015.7 |
| 20260504175031 | 61 | 116 | 0.0 | 2.0 | 0.00 | 0.00 | 0.00 | 73 | 1015.7 |
| 20260504174018 | 61 | 44 | 1.0 | 5.0 | 0.00 | 0.00 | 0.00 | 75 | 1015.8 |
| 20260504173018 | 61 | 35 | 2.0 | 10.0 | 0.00 | 0.00 | 0.00 | 76 | 1015.7 |
| 20260504172058 | 61 | 24 | 2.0 | 7.0 | 0.00 | 0.00 | 0.00 | 72 | 1015.8 |
| 20260504171040 | 61 | 359 | 1.0 | 7.0 | 0.00 | 0.00 | 0.00 | 73 | 1015.7 |
| 20260504151028 | 63 | 26 | 3.0 | 12.0 | 0.00 | 0.00 | 0.00 | 74 | 1015.9 |
| 20260504141043 | 61 | 45 | 0.0 | 0.0 | 0.00 | 0.00 | 0.00 | 75 | 1016.0 |